Flag for Germany Weather past 2 weeks in Hoyerswerda, Saxony, Germany

Now
42 °F

Fog.


Feels Like: 42 °F
Forecast: 46 / 67 °F
Wind: 1 mph from Northwest

Location: Cottbus


UV Index: 3 (Moderate)

Visibility: 4 mi


Pressure: 30.06 "Hg

Humidity: 98%

Dew point: 42 °F

Location of HoyerswerdaLocation

Historic Weather in Hoyerswerda

°F

Hoyerswerda temperature yesterday

Maximum temperature yesterday: 50 °F (at 6:00 PM)
Minimum temperature yesterday: 41 °F (at 11:00 PM)
Average temperature yesterday: 45 °F

Past Weeks' High & Low Weather Summary

 TemperatureHumidityPressure
High70 °F (Apr 7, 6:00 PM)99% (Apr 16, 7:00 AM)30.44 "Hg (Apr 16, 7:00 AM)
Low29 °F (Apr 17, 6:00 AM)29% (Apr 17, 5:00 PM)29.72 "Hg (Apr 14, 1:00 PM)
Average49 °F73%30.03 "Hg
* Reported Apr 4 8:00 AM — Apr 19 8:00 AM, Hoyerswerda, Weather by CustomWeather, © 2014

Note: Actual official high and low records may vary slightly from our data, if they occured in-between our weather recording intervals... More about our weather records

Advertising

Historic Weather Conditions — Data for Previous 24 hours

 ConditionsComfort  
Time TempWeatherWind HumidityBarometerVisibility
8:00 AM
Apr 19
37 °FFog.1 mph98%30.06 "Hg3 mi
7:00 AM34 °FFog.2 mph99%30.06 "Hg3 mi
6:00 AM32 °FFog.1 mph98%30.05 "Hg3 mi
5:00 AM32 °FFog.1 mph98%30.05 "Hg4 mi
4:00 AM32 °FClear.1 mph98%30.05 "Hg4 mi
3:00 AM34 °FFog.1 mph98%30.04 "Hg4 mi
2:00 AM35 °FFog.1 mph98%30.02 "Hg3 mi
1:00 AM37 °FFog.1 mph97%30.01 "Hg4 mi
12:00 AM39 °FFog.1 mph97%30.00 "Hg4 mi
11:00 PM
Apr 18
41 °FOvercast.1 mph95%29.98 "Hg7 mi
10:00 PM43 °FOvercast.2 mph90%29.96 "Hg14 mi
9:00 PM46 °FOvercast.1 mph79%29.94 "Hg31 mi
8:00 PM47 °FOvercast.1 mph76%29.90 "Hg43 mi
7:00 PM49 °FOvercast.3 mph71%29.88 "Hg31 mi
6:00 PM50 °FOvercast.2 mph71%29.86 "Hg43 mi
5:00 PM50 °FOvercast.2 mph66%29.85 "Hg43 mi
4:00 PM47 °FLight rain. Low clouds.2 mph82%29.85 "Hg7 mi
3:00 PM48 °FSprinkles. Overcast.2 mph84%29.84 "Hg9 mi
2:00 PM47 °FOvercast.2 mph75%29.83 "Hg37 mi
1:00 PM45 °FSprinkles. Overcast.2 mph83%29.83 "Hg19 mi
12:00 PM45 °FSprinkles. Overcast.1 mph81%29.83 "Hg28 mi
11:00 AM43 °FLight rain. Low clouds.1 mph84%29.82 "Hg16 mi
10:00 AM42 °FRain. Low clouds.2 mph92%29.81 "Hg6 mi
9:00 AM43 °FRain. Low clouds.3 mph96%29.80 "Hg2 mi
Weather by CustomWeather, © 2014

See weather overview